Regional Weather Roundup
Issued by NWS

Home | Current Version | Previous Version | Text Only | Print | Product List | Glossary Off
Versions: 1 2 3 4 5 6 7 8 9 10 11 12 13 14 15 16 17 18 19 20 21 22 23 24 25 26 27 28 29 30 31 32 33 34 35 36 37 38 39 40 41 42 43 44 45 46 47 48 49 50

000
ASUS45 KCYS 211010
RWRWY

WYOMING REGIONAL WEATHER ROUNDUP
NATIONAL WEATHER SERVICE CHEYENNE WY
300 AM MST WED FEB 21 2018

NOTE:  "FAIR" INDICATES FEW OR NO CLOUDS BELOW 12,000 FEET
WITH NO SIGNIFICANT WEATHER AND/OR OBSTRUCTIONS TO VISIBILITY.

WYZ001-211100-
YELLOWSTONE NATIONAL PARK

CITY           SKY/WX    TMP DP  RH WIND       PRES   REMARKS
LK YELLOWSTONE   N/A    -19 -23  81 W3        29.95F
W YELLOWSTONE  NOT AVBL

$$
WYZ002>013-054>058-071-098>099-211100-
NORTHERN WYOMING

CITY           SKY/WX    TMP DP  RH WIND       PRES   REMARKS
JACKSON        LGT SNOW   3  -1  83 VRB6      30.05S FOG     WCI  -8
CODY           FAIR      -7 -11  83 SE6       30.07S WCI -20
GREYBULL       FAIR     -22 -25  85 SE6       30.21F WCI -38
WORLAND        FAIR     -21 -25  81 S7        30.18F WCI -38
SHERIDAN       FAIR     -14 -19  79 CALM      30.14F
BUFFALO        FAIR      -1 -12  59 W10       30.08F WCI -17
GILLETTE       FAIR      -6 -16  61 S10       30.15S WCI -24
HULETT         FAIR      -9 -17  70 MISG      30.18S
NEWCASTLE      FAIR     -15 -22  70 CALM      30.24R

$$
WYZ014>020-022>026-101>103-211100-
CENTRAL WYOMING

CITY           SKY/WX    TMP DP  RH WIND       PRES   REMARKS
BIG PINEY      FAIR     -20 -24  82 NE5       30.05F WCI -33
PINEDALE       FAIR     -20 -26  76 W5        30.06S WCI -33
DUBOIS           N/A    N/A N/A N/A MISG        N/A
LANDER         FAIR     -10 -15  78 NW7       30.07F WCI -25
RIVERTON       FAIR     -14 -22  67 SW7       30.09S WCI -30
CASPER         FAIR      -2  -9  72 W10       30.09F WCI -19
DOUGLAS        FAIR     -25 -29  81 W3        30.15F

$$
WYZ021-027>030-104>119-211100-
SOUTHERN WYOMING

CITY           SKY/WX    TMP DP  RH WIND       PRES   REMARKS
EVANSTON       FAIR      -1  -6  79 SE3       30.01F
FORT BRIDGER   FAIR      -6 -13  71 SW3       30.06S
ROCK SPRINGS   FAIR      -4 -10  75 SE6       30.06F WCI -16
DIXON          FAIR     -12 -17  78 CALM      30.12S
RAWLINS        FAIR      -6 -10  83 W3        30.06S
SARATOGA       FAIR      -9 -15  77 MISG      30.05F
LARAMIE        FAIR      -7 -13  75 SE3       30.02F
CHEYENNE       FAIR       4  -1  80 NW5       30.10S WCI  -5
TORRINGTON     FAIR      -5  -8  87 CALM      30.22F
PINE BLUFFS    FAIR     -13 -18  77 MISG      30.19F

$$



USA.gov is the U.S. government's official web portal to all federal, state and local government web resources and services.